Location: Brienzwiler
(46.7508°N, 8.1014°E)
Time: 16:56:27
(UTC+00:00)

Cosmos 1933 - Pass Details

Date: 05 July 2020
Orbit: 548 x 563 km, 82.5° (Epoch: 10 August)

Event Time Altitude Azimuth Distance (km) Brightness Sun altitude
Rises 23:32:11 0° 344° (NNW) 2,731 8.2 -20.6°
Reaches altitude 10° 23:34:26 10° 337° (NNW) 1,833 6.9 -20.6°
Maximum altitude 23:38:14 41° 267° (W) 803 4.0 -20.6°
Enters shadow 23:38:44 39° 247° (WSW) 831 4.0 -20.6°
